GW0263 Weather Reports


time (UTC)temp
F
wind
direction
speed
knots
gust
knots
rain 1hr
in
rain 24hr
in
rain mn
in
humidity
%
barometer
mb
20260505170033 76 0 0.0 0.0 0.00 0.00 0.00 40 1018.9
20260505164530 76 0 0.0 0.0 0.00 0.00 0.00 40 1018.8
20260505163037 75 0 0.0 0.0 0.00 0.00 0.00 40 1018.8
20260505161532 75 0 0.0 0.0 0.00 0.00 0.00 41 1018.6
20260505153045 72 0 0.0 0.0 0.00 0.00 0.00 54 1019.0
20260505151534 70 0 0.0 0.0 0.00 0.00 0.00 53 1018.9
20260505124531 47 0 0.0 0.0 0.00 0.00 0.00 91 1018.5
20260505123051 46 0 0.0 0.0 0.00 0.00 0.00 91 1018.4
20260505121530 45 0 0.0 0.0 0.00 0.00 0.00 91 1018.4
20260505120032 44 0 0.0 0.0 0.00 0.00 0.00 91 1018.2
20260505114533 43 0 0.0 0.0 0.00 0.00 0.00 91 1018.3
20260505113037 43 0 0.0 0.0 0.00 0.00 0.00 90 1018.3
20260505111550 43 0 0.0 0.0 0.00 0.00 0.00 90 1018.0
20260505101535 44 0 0.0 0.0 0.00 0.00 0.00 88 1017.8
20260505100035 45 0 0.0 0.0 0.00 0.00 0.00 88 1017.7
20260505094531 45 0 0.0 0.0 0.00 0.00 0.00 88 1017.7
20260505093031 46 0 0.0 0.0 0.00 0.00 0.00 88 1017.6
20260505091535 46 0 0.0 0.0 0.00 0.00 0.00 89 1017.6
20260505090038 46 0 0.0 0.0 0.00 0.00 0.00 90 1017.6
20260505084532 46 0 0.0 0.0 0.00 0.00 0.00 90 1017.6
20260505083040 46 0 0.0 0.0 0.00 0.00 0.00 90 1017.6
20260505081540 46 0 0.0 0.0 0.00 0.00 0.00 90 1017.7
20260505080038 46 0 0.0 0.0 0.00 0.00 0.00 89 1017.7
20260505074530 46 0 0.0 0.0 0.00 0.00 0.00 89 1017.6
20260505073032 46 0 0.0 0.0 0.00 0.00 0.00 89 1017.7
20260505071537 47 0 0.0 0.0 0.00 0.00 0.00 89 1017.7
20260505070039 47 0 0.0 0.0 0.00 0.00 0.00 88 1017.6
20260505064550 47 0 0.0 0.0 0.00 0.00 0.00 88 1017.7
20260505063032 47 0 0.0 0.0 0.00 0.00 0.00 88 1017.8
20260505061539 48 0 0.0 0.0 0.00 0.00 0.00 87 1018.0
20260505060032 48 0 0.0 0.0 0.00 0.00 0.00 87 1018.1
20260505054535 49 0 0.0 0.0 0.00 0.00 0.00 87 1018.0
20260505053032 49 0 0.0 0.0 0.00 0.00 0.00 86 1018.0
20260505051532 49 0 0.0 0.0 0.00 0.00 0.00 85 1018.1
20260505041535 52 0 0.0 0.0 0.00 0.00 0.00 83 1018.2
20260505040033 52 0 0.0 0.0 0.00 0.00 0.00 82 1018.3
20260505034534 53 0 0.0 0.0 0.00 0.00 0.00 81 1018.4
20260505033036 53 0 0.0 0.0 0.00 0.00 0.00 80 1018.5
20260505031534 54 0 0.0 0.0 0.00 0.00 0.00 78 1018.4
20260505030034 55 0 0.0 0.0 0.00 0.00 0.00 77 1018.4
20260505024540 55 0 0.0 0.0 0.00 0.00 0.00 76 1018.4
20260505023030 56 0 0.0 0.0 0.00 0.00 0.00 75 1018.4
20260505021538 57 0 0.0 0.0 0.00 0.00 0.00 72 1018.3
20260505020031 58 0 0.0 0.0 0.00 0.00 0.00 70 1018.0
20260505014541 59 0 0.0 0.0 0.00 0.00 0.00 67 1017.8
20260505013032 60 0 0.0 0.0 0.00 0.00 0.00 64 1017.7
20260505011534 62 0 0.0 0.0 0.00 0.00 0.00 61 1017.6
20260505010036 63 0 0.0 0.0 0.00 0.00 0.00 59 1017.6
20260505004535 64 0 0.0 0.0 0.00 0.00 0.00 56 1017.4
20260505003034 65 0 0.0 0.0 0.00 0.00 0.00 54 1017.3
20260505001546 67 0 0.0 0.0 0.00 0.00 0.00 51 1017.2
20260505000040 68 0 0.0 0.0 0.00 0.00 0.00 47 1017.1
20260504234532 68 0 0.0 0.0 0.00 0.00 0.00 45 1017.2
20260504233031 69 0 0.0 0.0 0.00 0.00 0.00 43 1017.0
20260504231540 70 0 0.0 0.0 0.00 0.00 0.00 40 1017.0
20260504230030 70 0 0.0 0.0 0.00 0.00 0.00 47 1016.8
20260504224536 71 0 0.0 0.0 0.00 0.00 0.00 43 1016.7
20260504223031 71 0 0.0 0.0 0.00 0.00 0.00 45 1016.7
20260504221532 71 0 0.0 0.0 0.00 0.00 0.00 49 1016.8
20260504220034 72 0 0.0 0.0 0.00 0.00 0.00 47 1016.8
20260504214534 73 0 0.0 0.0 0.00 0.00 0.00 47 1016.8
20260504213033 73 0 0.0 0.0 0.00 0.00 0.00 44 1016.8
20260504211532 73 0 0.0 0.0 0.00 0.00 0.00 47 1016.7
20260504210051 74 0 0.0 0.0 0.00 0.00 0.00 43 1016.7
20260504204534 75 0 0.0 0.0 0.00 0.00 0.00 45 1016.7
20260504203034 76 0 0.0 0.0 0.00 0.00 0.00 42 1016.7
20260504201535 77 0 0.0 0.0 0.00 0.00 0.00 38 1016.6
20260504200032 77 0 0.0 0.0 0.00 0.00 0.00 39 1016.7
20260504194555 79 0 0.0 0.0 0.00 0.00 0.00 38 1016.8
20260504193034 80 0 0.0 0.0 0.00 0.00 0.00 34 1016.9
20260504191542 79 0 0.0 0.0 0.00 0.00 0.00 37 1017.0
20260504190033 80 0 0.0 0.0 0.00 0.00 0.00 36 1017.2
20260504184537 80 0 0.0 0.0 0.00 0.00 0.00 30 1017.5
20260504183033 81 0 0.0 0.0 0.00 0.00 0.00 31 1017.6
20260504181543 80 0 0.0 0.0 0.00 0.00 0.00 32 1017.9
20260504180050 80 0 0.0 0.0 0.00 0.00 0.00 29 1017.9
20260504174532 79 0 0.0 0.0 0.00 0.00 0.00 29 1018.1
20260504173035 79 0 0.0 0.0 0.00 0.00 0.00 29 1018.1
20260504171530 79 0 0.0 0.0 0.00 0.00 0.00 33 1018.1